Location: St Paul
(33.4390°N, 83.7350°W)
Time: 00:13:20
(UTC-04:00)

Cosmos 2112 Rocket - Pass Details

Date: 06 October 2017
Orbit: 757 x 787 km, 74.0° (Epoch: 22 October)

Event Time Altitude Azimuth Distance (km) Brightness Sun altitude
Rises 20:05:38 0° 180° (S) 3,260 7.3 -11.9°
Reaches altitude 10° 20:08:06 10° 174° (S) 2,334 6.4 -12.5°
Maximum altitude 20:13:09 46° 102° (ESE) 1,038 4.3 -13.5°
Drops below altitude 10° 20:18:12 10° 30° (NNE) 2,335 6.2 -14.6°
Sets 20:20:40 0° 25° (NNE) 3,262 7.0 -15.1°
